Regional Weather Roundup
Issued by NWS

Home | Current Version | Previous Version | Text Only | Print | Product List | Glossary Off
Versions: 1 2 3 4 5 6 7 8 9 10 11 12 13 14 15 16 17 18 19 20 21 22 23 24 25 26 27 28 29 30 31 32 33 34 35 36 37 38 39 40 41 42 43 44 45 46 47 48 49 50

000
ASUS43 KBIS 280610
RWRND

NORTH DAKOTA REGIONAL WEATHER ROUNDUP
NATIONAL WEATHER SERVICE BISMARCK ND
1200 AM CST FRI NOV 28 2014

NOTE: "FAIR" INDICATES FEW OR NO CLOUDS BELOW 12,000 FEET WITH NO
SIGNIFICANT WEATHER AND/OR OBSTRUCTIONS TO VISIBILITY.


NDZ001>003-009>011-017-280700-
NORTHWEST NORTH DAKOTA

CITY           SKY/WX    TMP DP  RH WIND       PRES   REMARKS
WILLISTON      CLOUDY    16  12  84 E5        29.81F WCI   9
6HR MIN TEMP:  13; 6HR MAX TEMP:  19;

MINOT          CLOUDY    10   5  80 E10       29.90F WCI  -4
MINOT AFB      CLOUDY    10   6  86 SE14      29.91F WCI  -6
$$

NDZ018>021-031>035-040>046-280700-
SOUTHWEST NORTH DAKOTA

CITY           SKY/WX    TMP DP  RH WIND       PRES   REMARKS
BISMARCK       PTCLDY    10   6  84 E9        29.89F WCI  -3
6HR MIN TEMP:  10; 6HR MAX TEMP:  12; 6HR PCP: TRACE;

DICKINSON      CLEAR     18  15  88 CALM      29.73S
GARRISON         N/A     11   7  84 E10       29.85F WCI  -3
6HR MIN TEMP:  11; 6HR MAX TEMP:  13; 6HR PCP:  0.01;

HETTINGER ARPT PTCLDY    21  18  88 CALM      29.76F
$$

NDZ004>008-012>016-024-026-027-054-280700-
NORTHEAST NORTH DAKOTA

CITY           SKY/WX    TMP DP  RH WIND       PRES   REMARKS
GRAND FORKS    MIX PCPN   9   4  80 SE14      30.10F WCI  -7
GRND FRKS AFB  CLOUDY     9   5  85 S9        30.09F WCI  -5
DEVILS LAKE    CLOUDY     9  -2  61 SE10      29.98S WCI  -6
$$

NDZ022-023-025-028>030-036>039-047>053-280700-
SOUTHEAST NORTH DAKOTA

CITY           SKY/WX    TMP DP  RH WIND       PRES   REMARKS
FARGO          CLOUDY    11   5  77 SE13      30.09F WCI  -4
6HR MIN TEMP:   8; 6HR MAX TEMP:  11; 6HR PCP:  0.06;

JAMESTOWN      CLOUDY     6   2  83 SE10      29.97F WCI  -9
$$



USA.gov is the U.S. government's official web portal to all federal, state and local government web resources and services.